THORAD AGENA D DEB, 4644

Orbit data source: Space-Track

THORAD AGENA D DEB, 4644 is space debris in SSO originally from a launch on Wed, 08 Apr 1970 UTC launched from the Air Force Western Test Range (AFWTR). Debris objects in space refer to the collection of defunct objects orbiting the Earth. Examples of debris include non-operational satellites, rocket bodies, and fragments generated from explosions, collisions, or faulty payload assembly.

Loading next visibility...
Identifier
4644, 1970-025AC
Orbit
SSO
Country
Flag of USUS
Related business
Manufacturer
Unknown
Mission
Spacecraft
Bus & Motor
Unknown
Mass
Unknown
Launch date (UTC)
1970-04-08 (55 years ago)
Launch vehicle
Unknown
Launch site
Air Force Western Test Range (AFWTR)
Object type
Payload
Rocket body
Debris
Shape & HBR
Unknown
Radar Cross Section
Medium (>0.1 m² and <1 m²)

Expand to show TLE details & history
Last TLE update: 11 hours ago

TLE from 11 hours ago
0 THORAD AGENA D DEB
1 04644U 70025AC  25258.16655473  .00000269  00000-0  41681-3 0  9991
2 04644  99.5746 153.0785 0010087 275.7091 240.7996 13.60304368739781
Epoch: 2025-09-15T03:59Z
TLE epoch observation values (Epoch: 2025-09-15T03:59:50.328Z)
Latitude
23.26464°
Longitude
-77.11892°
Altitude
1,040.961 km
Speed
7.332 km/s
True Right ascension
22h 28m 51s
True Declination
23° 08' 42"
Sunlit
Object was in full shadow at epoch
Visualization orbit readout
Latitude
Unknown
Longitude
Unknown
Altitude
Unknown
Speed
Unknown
Apparent Right ascension
Unknown
Apparent Declination
Unknown
Sunlit
N/A
Visualization observer readout
Local Sidereal Time
07:49:50
Azimuth
Unknown
Elevation
Unknown
Doppler factor
Unknown
Orbital elements
Apogee altitude
1,039.342 km
Perigee altitude
1,024.393 km
Semi-major axis
7,410.004 km
Eccentricity
0.00101
Inclination
99.5746°
RAAN
153.0785°
Arg. of periapsis
275.7091°
True anomaly
240.69876°
Mean anomaly
240.7996°
Eccentric anomaly
240.74918°
Mean motion
3.40264 °/min
Orbital period
105.8 mins
BSTAR
0.00041681
Loading maneuver chart data...
Computing Atmospheric mass density...

Documentation

Showing up to 5 results
|